Radiation Dose at Monitoring Post of Fukushima Daini Nuclear Power Station
Date,Time,MP-1(microSv/h),MP-2(microSv/h),MP-3(microSv/h),MP-4(microSv/h),MP-5(microSv/h),MP-6(microSv/h),MP-7(microSv/h),Wind Direction,Wind Velocity(m/s),Rain
2021/04/16,00:00,0.168,0.150,0.247,0.234,0.233,0.133,0.082,south-southwest,6.7,No
2021/04/16,00:10,0.169,0.150,0.247,0.234,0.234,0.133,0.082,south-southwest,6.2,No
2021/04/16,00:20,0.169,0.151,0.248,0.233,0.234,0.132,0.081,south-southwest,4.2,No
2021/04/16,00:30,0.169,0.150,0.247,0.233,0.234,0.132,0.082,south-southwest,5.1,No
2021/04/16,00:40,0.169,0.151,0.247,0.233,0.234,0.132,0.082,south-southwest,5.2,No
2021/04/16,00:50,0.169,0.150,0.247,0.234,0.233,0.133,0.082,south-southwest,4.9,No
2021/04/16,01:00,0.169,0.150,0.248,0.233,0.232,0.132,0.082,south-southwest,5.0,No
2021/04/16,01:10,0.170,0.149,0.247,0.233,0.233,0.132,0.081,south-southwest,4.2,No
2021/04/16,01:20,0.169,0.150,0.247,0.234,0.234,0.132,0.082,south-southwest,4.5,No
2021/04/16,01:30,0.169,0.151,0.247,0.234,0.234,0.132,0.081,south-southwest,4.8,No
2021/04/16,01:40,0.169,0.150,0.248,0.234,0.233,0.132,0.082,south-southwest,4.3,No
2021/04/16,01:50,0.169,0.150,0.247,0.233,0.234,0.132,0.082,south-southwest,4.5,No
2021/04/16,02:00,0.169,0.150,0.246,0.233,0.234,0.132,0.082,south-southwest,4.2,No
2021/04/16,02:10,0.169,0.151,0.246,0.233,0.233,0.132,0.082,south-southwest,4.9,No
2021/04/16,02:20,0.169,0.151,0.247,0.234,0.234,0.132,0.082,south-southwest,4.5,No
2021/04/16,02:30,0.169,0.150,0.247,0.234,0.233,0.133,0.082,south-southwest,4.5,No
2021/04/16,02:40,0.169,0.151,0.247,0.234,0.234,0.132,0.082,south-southwest,4.6,No
2021/04/16,02:50,0.169,0.149,0.245,0.233,0.234,0.132,0.081,south-southwest,3.0,No
2021/04/16,03:00,0.168,0.150,0.247,0.235,0.235,0.132,0.082,south-southwest,3.8,No
2021/04/16,03:10,0.170,0.150,0.247,0.233,0.233,0.132,0.082,south-southwest,2.9,No
2021/04/16,03:20,0.170,0.150,0.247,0.233,0.234,0.132,0.081,south,1.8,No
2021/04/16,03:30,0.169,0.151,0.248,0.233,0.233,0.132,0.081,south-southwest,3.1,No
2021/04/16,03:40,0.169,0.151,0.247,0.233,0.233,0.132,0.082,south,3.2,No
2021/04/16,03:50,0.169,0.150,0.247,0.234,0.233,0.132,0.082,south,2.9,No
2021/04/16,04:00,0.170,0.150,0.248,0.233,0.234,0.132,0.082,south,3.5,No
2021/04/16,04:10,0.169,0.150,0.247,0.232,0.234,0.133,0.082,south-southwest,3.9,No
2021/04/16,04:20,0.169,0.150,0.247,0.233,0.233,0.132,0.083,south-southwest,3.8,No
2021/04/16,04:30,0.170,0.150,0.247,0.234,0.234,0.133,0.081,south-southwest,3.9,No
2021/04/16,04:40,0.169,0.150,0.248,0.234,0.233,0.132,0.082,south-southwest,3.8,No
2021/04/16,04:50,0.168,0.150,0.248,0.234,0.233,0.132,0.082,south-southwest,3.6,No
2021/04/16,05:00,0.169,0.150,0.249,0.233,0.233,0.132,0.082,south-southwest,4.3,No
2021/04/16,05:10,0.169,0.150,0.248,0.235,0.234,0.132,0.081,south,4.1,No
2021/04/16,05:20,0.168,0.151,0.246,0.234,0.234,0.132,0.083,south,4.2,No
2021/04/16,05:30,0.169,0.149,0.247,0.232,0.233,0.132,0.082,south,4.2,No
2021/04/16,05:40,0.169,0.150,0.247,0.234,0.234,0.132,0.082,south-southwest,4.2,No
2021/04/16,05:50,0.169,0.150,0.248,0.234,0.233,0.131,0.082,south-southwest,4.4,No
2021/04/16,06:00,0.168,0.150,0.247,0.234,0.233,0.132,0.082,south-southwest,3.7,No
2021/04/16,06:10,0.169,0.151,0.246,0.234,0.235,0.132,0.082,south-southwest,4.0,No
2021/04/16,06:20,0.169,0.150,0.246,0.232,0.234,0.132,0.082,south,3.3,No
2021/04/16,06:30,0.168,0.149,0.248,0.233,0.233,0.133,0.082,south,4.4,No
2021/04/16,06:40,0.169,0.151,0.247,0.233,0.234,0.133,0.083,south,4.4,No
2021/04/16,06:50,0.170,0.150,0.247,0.233,0.234,0.132,0.082,south-southwest,5.3,No
2021/04/16,07:00,0.169,0.150,0.246,0.233,0.234,0.132,0.082,south,4.4,No
2021/04/16,07:10,0.170,0.150,0.247,0.234,0.235,0.132,0.081,south-southwest,5.0,No
2021/04/16,07:20,0.170,0.152,0.246,0.233,0.234,0.133,0.082,south-southwest,3.7,No
2021/04/16,07:30,0.169,0.152,0.246,0.233,0.234,0.132,0.082,south-southwest,4.6,No
2021/04/16,07:40,0.169,0.150,0.247,0.234,0.235,0.132,0.081,south,4.1,No
2021/04/16,07:50,0.171,0.149,0.245,0.233,0.231,0.132,0.082,south,4.1,No
2021/04/16,08:00,0.169,0.150,0.246,0.233,0.235,0.133,0.082,south,3.3,No
2021/04/16,08:10,0.170,0.149,0.245,0.232,0.233,0.132,0.081,south-southeast,3.2,No
2021/04/16,08:20,0.168,0.150,0.246,0.233,0.235,0.131,0.081,south,4.1,No
2021/04/16,08:30,0.170,0.149,0.245,0.233,0.233,0.132,0.082,south,3.6,No
2021/04/16,08:40,0.169,0.149,0.247,0.232,0.235,0.132,0.081,south-southeast,4.0,No
2021/04/16,08:50,0.169,0.149,0.246,0.233,0.232,0.131,0.081,south-southeast,5.3,No
2021/04/16,09:00,0.169,0.150,0.246,0.232,0.235,0.132,0.081,south-southeast,5.4,No
2021/04/16,09:10,0.170,0.149,0.246,0.233,0.231,0.131,0.081,south-southeast,5.3,No
2021/04/16,09:20,0.167,0.150,0.244,0.230,0.234,0.132,0.081,south-southeast,5.5,No
2021/04/16,09:30,0.169,0.150,0.245,0.233,0.233,0.132,0.082,south-southeast,6.6,No
2021/04/16,09:40,0.167,0.150,0.244,0.233,0.234,0.132,0.082,south-southeast,5.9,No
2021/04/16,09:50,0.170,0.149,0.246,0.234,0.232,0.131,0.082,south-southeast,5.8,No
2021/04/16,10:00,0.169,0.151,0.247,0.234,0.233,0.133,0.081,south-southeast,5.2,No
2021/04/16,10:10,0.169,0.150,0.249,0.235,0.234,0.132,0.083,south,6.1,No
2021/04/16,10:20,0.169,0.150,0.247,0.232,0.234,0.132,0.081,south-southeast,6.8,No
2021/04/16,10:30,0.170,0.149,0.248,0.235,0.235,0.132,0.081,south,6.5,No
2021/04/16,10:40,0.169,0.150,0.246,0.232,0.234,0.132,0.082,south-southeast,6.5,No
2021/04/16,10:50,0.169,0.149,0.247,0.234,0.235,0.133,0.081,south-southeast,7.8,No
2021/04/16,11:00,0.169,0.150,0.247,0.232,0.232,0.132,0.082,south-southeast,8.5,No
2021/04/16,11:10,0.168,0.149,0.247,0.234,0.235,0.133,0.081,south-southeast,7.5,No
2021/04/16,11:20,0.169,0.150,0.248,0.232,0.233,0.132,0.081,south-southeast,7.2,No
2021/04/16,11:30,0.168,0.149,0.246,0.234,0.234,0.133,0.082,southeast,7.9,No
2021/04/16,11:40,0.169,0.150,0.247,0.235,0.233,0.132,0.082,south-southeast,7.9,No
2021/04/16,11:50,0.168,0.150,0.247,0.235,0.235,0.133,0.082,south-southeast,7.7,No
2021/04/16,12:00,0.169,0.151,0.248,0.233,0.233,0.131,0.081,south-southeast,9.5,No
2021/04/16,12:10,0.169,0.149,0.246,0.234,0.234,0.133,0.082,south-southeast,9.6,No
2021/04/16,12:20,0.168,0.150,0.248,0.233,0.234,0.131,0.081,south-southeast,7.4,No
2021/04/16,12:30,0.170,0.150,0.247,0.234,0.233,0.132,0.082,south,7.6,No
2021/04/16,12:40,0.167,0.150,0.248,0.234,0.235,0.132,0.082,south,7.4,No
2021/04/16,12:50,0.169,0.149,0.247,0.232,0.234,0.132,0.082,south-southeast,6.7,No
2021/04/16,13:00,0.168,0.150,0.246,0.234,0.233,0.132,0.082,south-southeast,6.9,No
2021/04/16,13:10,0.168,0.150,0.247,0.231,0.236,0.132,0.082,south-southeast,9.2,No
2021/04/16,13:20,0.170,0.150,0.246,0.235,0.232,0.133,0.082,south-southeast,10.0,No
2021/04/16,13:30,0.169,0.150,0.248,0.234,0.236,0.132,0.082,south-southeast,9.6,No
2021/04/16,13:40,0.168,0.149,0.246,0.235,0.233,0.133,0.081,south-southeast,10.9,No
2021/04/16,13:50,0.168,0.150,0.248,0.233,0.234,0.132,0.081,south-southeast,10.9,No
2021/04/16,14:00,0.168,0.150,0.247,0.236,0.235,0.132,0.082,south-southeast,9.6,No
2021/04/16,14:10,0.169,0.150,0.248,0.234,0.234,0.132,0.081,south-southeast,8.5,No
2021/04/16,14:20,0.169,0.149,0.249,0.234,0.234,0.132,0.082,south-southeast,9.6,No
2021/04/16,14:30,0.169,0.150,0.247,0.234,0.236,0.132,0.082,south,10.1,No
2021/04/16,14:40,0.170,0.151,0.248,0.235,0.234,0.132,0.081,south,8.5,No
2021/04/16,14:50,0.169,0.150,0.248,0.234,0.236,0.132,0.082,south-southeast,7.3,No
2021/04/16,15:00,0.169,0.150,0.249,0.233,0.234,0.132,0.081,south-southeast,7.3,No
2021/04/16,15:10,0.169,0.151,0.247,0.234,0.236,0.133,0.082,south-southeast,7.9,No
2021/04/16,15:20,0.169,0.151,0.249,0.233,0.234,0.133,0.081,south-southeast,8.2,No
2021/04/16,15:30,0.168,0.151,0.247,0.235,0.235,0.132,0.082,south-southeast,9.3,No
2021/04/16,15:40,0.169,0.150,0.248,0.233,0.235,0.133,0.082,south-southeast,7.4,Yes
2021/04/16,15:50,0.168,0.151,0.248,0.234,0.235,0.133,0.082,south-southeast,7.1,No
2021/04/16,16:00,0.169,0.151,0.247,0.233,0.234,0.133,0.081,south,8.1,No
2021/04/16,16:10,0.168,0.150,0.249,0.233,0.234,0.132,0.082,south,7.9,No
2021/04/16,16:20,0.170,0.151,0.247,0.235,0.236,0.133,0.081,south-southeast,7.5,No
2021/04/16,16:30,0.168,0.151,0.248,0.233,0.233,0.133,0.081,south-southeast,8.4,No
2021/04/16,16:40,0.169,0.151,0.249,0.234,0.235,0.133,0.082,south,7.7,No
2021/04/16,16:50,0.169,0.150,0.247,0.234,0.234,0.132,0.081,south,8.5,No
2021/04/16,17:00,0.169,0.152,0.248,0.235,0.236,0.133,0.081,south,7.2,No
2021/04/16,17:10,0.168,0.149,0.247,0.234,0.233,0.133,0.081,south,7.3,No
2021/04/16,17:20,0.169,0.150,0.248,0.235,0.235,0.133,0.082,south,7.9,No
2021/04/16,17:30,0.168,0.150,0.248,0.236,0.233,0.133,0.082,south,6.6,No
2021/04/16,17:40,0.169,0.150,0.247,0.233,0.236,0.132,0.082,south,6.2,No
2021/04/16,17:50,0.169,0.150,0.248,0.234,0.234,0.132,0.081,south,7.2,No
2021/04/16,18:00,0.168,0.149,0.248,0.235,0.234,0.133,0.081,south,6.5,No
2021/04/16,18:10,0.170,0.151,0.248,0.236,0.236,0.132,0.081,south,6.2,No
2021/04/16,18:20,0.169,0.150,0.248,0.235,0.233,0.133,0.082,south,5.8,No
2021/04/16,18:30,0.168,0.149,0.248,0.234,0.235,0.132,0.081,south,5.9,No
2021/04/16,18:40,0.168,0.152,0.250,0.235,0.233,0.131,0.082,south,6.1,No
2021/04/16,18:50,0.170,0.150,0.248,0.233,0.236,0.132,0.081,south,6.2,No
2021/04/16,19:00,0.169,0.150,0.248,0.236,0.232,0.133,0.081,south,6.8,No
2021/04/16,19:10,0.170,0.150,0.248,0.235,0.235,0.132,0.082,south,6.9,No
2021/04/16,19:20,0.169,0.149,0.248,0.234,0.234,0.132,0.082,south,7.3,No
2021/04/16,19:30,0.170,0.151,0.249,0.234,0.234,0.133,0.082,south,6.9,No
2021/04/16,19:40,0.168,0.151,0.248,0.235,0.236,0.133,0.082,south,6.4,No
2021/04/16,19:50,0.169,0.150,0.248,0.234,0.234,0.133,0.081,south,7.0,No
2021/04/16,20:00,0.169,0.151,0.248,0.234,0.236,0.132,0.082,south,7.4,No
2021/04/16,20:10,0.169,0.149,0.248,0.235,0.234,0.132,0.082,south,9.0,No
2021/04/16,20:20,0.170,0.150,0.249,0.235,0.235,0.132,0.082,south,7.3,No
2021/04/16,20:30,0.168,0.150,0.249,0.234,0.234,0.132,0.082,south,6.5,No
2021/04/16,20:40,0.169,0.151,0.246,0.236,0.234,0.133,0.082,south,6.2,No
2021/04/16,20:50,0.169,0.152,0.250,0.234,0.234,0.131,0.081,south,6.7,No
2021/04/16,21:00,0.169,0.150,0.247,0.234,0.234,0.132,0.081,south-southwest,6.6,No
2021/04/16,21:10,0.169,0.151,0.249,0.234,0.235,0.133,0.081,south-southwest,6.3,No
2021/04/16,21:20,0.169,0.150,0.247,0.233,0.234,0.132,0.082,south-southwest,5.7,No
2021/04/16,21:30,0.170,0.150,0.247,0.236,0.235,0.132,0.081,south-southwest,5.4,No
2021/04/16,21:40,0.169,0.150,0.250,0.233,0.234,0.132,0.082,south-southwest,5.3,No
2021/04/16,21:50,0.170,0.150,0.247,0.235,0.235,0.133,0.082,south-southwest,5.5,No
2021/04/16,22:00,0.169,0.151,0.249,0.234,0.233,0.133,0.081,south,5.0,No
2021/04/16,22:10,0.170,0.150,0.248,0.234,0.235,0.132,0.081,south,6.4,No
2021/04/16,22:20,0.168,0.150,0.246,0.236,0.234,0.132,0.082,south,5.7,No
2021/04/16,22:30,0.168,0.151,0.248,0.234,0.235,0.133,0.082,south,5.7,No
2021/04/16,22:40,0.169,0.150,0.249,0.235,0.235,0.133,0.081,south,6.8,No
2021/04/16,22:50,0.170,0.151,0.248,0.234,0.234,0.132,0.082,south,7.0,No
2021/04/16,23:00,0.169,0.151,0.249,0.234,0.236,0.132,0.082,south,6.0,No
2021/04/16,23:10,0.170,0.150,0.249,0.235,0.234,0.132,0.082,south,6.2,No
2021/04/16,23:20,0.170,0.150,0.249,0.235,0.235,0.132,0.082,south-southwest,6.1,No
2021/04/16,23:30,0.168,0.152,0.248,0.235,0.235,0.133,0.082,south-southwest,6.9,No
2021/04/16,23:40,0.169,0.151,0.248,0.234,0.235,0.133,0.082,south-southwest,5.7,No
2021/04/16,23:50,0.169,0.150,0.248,0.235,0.234,0.133,0.081,south,5.6,No
